Tracking 20041 objects as of 22-Nov-2019
Live streaming from Space Station
objects crossing your sky now

SL-12 R/B(2)

Track SL-12 R/B(2) now!


NORAD ID: 25318
Int'l Code: 1998-025D
Perigee: 35,731.3 km
Apogee: 35,988.7 km
Inclination: 13.0 °
Period: 1,439.5 minutes
Semi major axis: 42230 km
RCS: 1.1651 m2 (large)
Launch date: April 29, 1998
Source: Commonwealth of Independent States (former USSR) (CIS)
Launch site: TYURATAM MISSILE AND SPACE COMPLEX (TTMTR)

Note: This is a ROCKET BODY
aabbcc
Your satellite tracking list
Your tracking list is empty




NASA's NSSDC Master Catalog

Two Line Element Set (TLE):
1 25318U 98025D   19326.64655148 -.00000079  00000-0  00000+0 0  9999
2 25318  13.0300  21.4985 0030478  65.0306 102.1880  1.00035866 78823
Source of the keplerian elements: AFSPC